WA2GUG Weather Reports


Display with metric or nautical units.
time (UTC)temp
F
wind
direction
speed
MPH
gust
MPH
rain 1hr
in
rain 24hr
in
rain mn
in
humidity
%
barometer
mb
20210801062336 54 180 0.0 0.0 0.00 0.00 0.00 1012.0
20210801061836 54 165 0.0 0.0 0.00 0.00 0.00 99 1012.0
20210801061336 54 0.0 99.0 0.00 0.00 0.00 99 1012.0
20210801060836 54 180 107.0 99.0 0.00 0.00 0.00 99 1012.0
20210801060336 54 180 0.0 0.0 0.00 0.00 0.00 99
20210801055836 54 180 0.0 0.0 0.00 0.00 0.00 99
20210801055336 54 180 0.0 0.0 0.00 0.00 0.00 991.0
20210801054836 54 180 0.0 0.0 0.00 0.00 0.00 99 1012.0
20210801054336 54 180 0.0 0.0 0.00 0.00 0.00 99 1012.0
20210801053836 53 180 0.0 0.0 0.00 0.00 0.00 99
20210801053336 54 0.0 0.0 0.00 0.00 0.00 99
20210801052836 54 180 0.0 0.0 0.00 0.00 0.00 99 1012.0
20210801052336 54 180 0.0 0.0 0.00 0.00 0.00 99 3350.0
20210801051836 54 202 0.0 0.0 0.00 0.00 0.00 99 1012.0
20210801051336 54 225 0.0 0.0 0.00 0.00 0.00 99
20210801050836 54 225 0.0 0.0 0.00 0.00 0.00 99 3169.0
20210801050336 54 0 0.0 0.0 0.00 0.00 0.00 99 1012.0
20210801045836 54 0.0 0.0 0.00 0.00 0.00 99 1012.0
20210801045336 54 348 0.0 0.0 0.00 0.00 0.00 99
20210801044836 55 225 0.0 0.0 0.00 0.00 0.00 99 1012.0
20210801044336 55 0.0 0.0 0.00 0.00 0.00 99 1012.0
20210801043836 55 270 0.0 99.0 0.00 0.00 0.00 99 1012.0
20210801043336 55 264 299.0 99.0 0.00 0.00 0.00 99 1012.0
20210801042836 55 315 0.0 0.0 0.00 0.00 0.00 99 1012.0
20210801042336 55 315 0.0 0.0 0.00 0.00 0.00 1012.0
20210801041836 55 22 0.0 1.0 0.00 0.00 0.00 1012.0
20210801041336 55 348 0.0 1.0 0.00 0.00 0.00 99 1012.0
20210801040836 55 22 0.0 1.0 0.00 0.00 0.00 99
20210801040336 55 67 0.0 0.0 0.00 0.00 0.00 99
20210801035836 55 67 0.0 0.0 0.00 0.00 0.00 99 1012.0
20210801035336 55 67 0.0 0.0 0.00 0.00 0.00 99 4543.0
20210801034836 55 45 0.0 0.0 0.00 0.00 0.00 99
20210801034336 55 140 0.0 0.0 0.00 0.00 0.00 99 1012.0
20210801033836 55 157 0.0 0.0 0.00 0.00 0.00 99 1012.0
20210801033336 56 168 0.0 0.0 0.00 0.00 0.00 99
20210801032836 56 292 0.0 0.0 0.00 0.00 0.00 99 1012.0
20210801032336 56 292 0.0 0.0 0.00 0.00 0.00 99
20210801031836 56 292 0.0 0.0 0.00 0.00 0.00 99 2135.0
20210801031336 56 270 0.0 0.0 0.00 0.00 0.00 99 1012.0
20210801030836 56 270 0.0 0.0 0.00 0.00 0.00 99 1012.0
20210801030336 56 0.0 0.0 0.00 0.00 0.00 99 1012.0
20210801025836 56 232 0.0 0.0 0.00 0.00 0.00
20210801025336 57 247 0.0 0.0 0.00 0.00 0.00 99 1012.0
20210801024836 57 225 0.0 0.0 0.00 0.00 0.00 99 1012.0
20210801024336 57 225 0.0 0.0 0.00 0.00 0.00 99 1012.0
20210801023836 57 157 0.0 1.0 0.00 0.00 0.00 99
20210801023336 57 180 0.0 1.0 0.00 0.00 0.00 99 1012.0
20210801022836 58 225 0.0 99.0 0.00 0.00 0.00 99 1012.0
20210801022336 58 0 99.0 99.0 0.00 0.00 0.00 99 3359.0
20210801021836 57 0 0.0 1.0 0.00 0.00 0.00 99
20210801021336 57 0.0 0.0 0.00 0.00 0.00 99 1012.0
20210801020836 57 0 0.0 0.0 0.00 0.00 0.00 99 1012.0
20210801020336 57 45 0.0 0.0 0.00 0.00 0.00 1012.0
20210801015836 57 45 0.0 0.0 0.00 0.00 0.00 99 1012.0
20210801015336 57 0.0 0.0 0.00 0.00 0.00 99 2182.0
20210801014836 57 0 0.0 0.0 0.00 0.00 0.00 99 1012.0
20210801014336 57 15 0.0 0.0 0.00 0.00 0.00 99 1012.0
20210801013836 57 0 0.0 0.0 0.00 0.00 0.00 99 1012.0
20210801013336 57 0.0 0.0 0.00 0.00 0.00 99 1012.0
20210801012836 57 0.0 99.0 0.00 0.00 0.00 99
20210801012336 58 0 120.0 99.0 0.00 0.00 0.00 99 1012.0
20210801011836 58 67 0.0 0.0 0.00 0.00 0.00 99 1012.0
20210801011336 58 56 0.0 0.0 0.00 0.00 0.00 99 1012.0
20210801010836 58 45 0.0 0.0 0.00 0.00 0.00 99
20210801010336 59 33 0.0 0.0 0.00 0.00 0.00 99
20210801005836 59 0 0.0 0.0 0.00 0.00 0.00 99 1012.0
20210801005336 60 45 0.0 0.0 0.00 0.00 0.00 1012.0
20210801004836 60 45 0.0 0.0 0.00 0.00 0.00 99 1012.0
20210801004336 61 45 0.0 0.0 0.00 0.00 0.00 99 1012.0
20210801003836 61 36 0.0 0.0 0.00 0.00 0.00 99 1012.0
20210801003336 61 52 0.0 0.0 0.00 0.00 0.00 99 1012.0
20210801002836 62 90 0.0 0.0 0.00 0.00 0.00 99 1947.0
20210801002336 63 168 0.0 0.0 0.00 0.00 0.00 99 1012.0
20210801001836 63 101 0.0 0.0 0.00 0.00 0.00 99
20210801001336 64 75 0.0 0.0 0.00 0.00 0.00 99 1012.0
20210801000836 64 45 0.0 0.0 0.00 0.00 0.00 99 1012.0
20210801000338 65 22 0.0 0.0 0.00 0.00 0.00 99 1012.0
20210731235836 65 61 0.0 0.0 0.00 0.00 0.00 99 1012.0
20210731235336 66 157 0.0 0.0 0.00 0.00 0.00 99 1012.0
20210731234836 68 112 0.0 0.0 0.00 0.00 0.00 91 1012.0
20210731234336 69 90 0.0 0.0 0.00 0.00 0.00 93 1012.0
20210731233836 70 337 0.0 0.0 0.00 0.00 0.00 91
20210731233336 71 309 0.0 0.0 0.00 0.00 0.00 82 1764.0
20210731232836 73 118 0.0 1.0 0.00 0.00 0.00 87 3354.0
20210731232336 76 39 0.0 1.0 0.00 0.00 0.00 76
20210731231836 79 165 0.0 3.0 0.00 0.00 0.00 79 1012.0
20210731231336 80 123 1.0 3.0 0.00 0.00 0.00 79 1012.0
20210731230836 81 345 1.0 2.0 0.00 0.00 0.00 77 1012.0
20210731230336 82 135 0.0 99.0 0.00 0.00 0.00 69 1012.0
20210731225336 83 90 1.0 2.0 0.00 0.00 0.00 65 982.0
20210731224836 83 180 1.0 3.0 0.00 0.00 0.00 73 1012.0
20210731224336 83 279 1.0 3.0 0.00 0.00 0.00 67 1012.0
20210731223836 84 240 1.0 3.0 0.00 0.00 0.00 70
20210731223336 85 352 1.0 3.0 0.00 0.00 0.00 73 1012.0
20210731222836 87 253 1.0 2.0 0.00 0.00 0.00 72 3359.0
20210731222336 88 45 1.0 2.0 0.00 0.00 0.00 72 1012.0
20210731221836 88 142 1.0 4.0 0.00 0.00 0.00 62 1012.0
20210731221336 88 270 1.0 4.0 0.00 0.00 0.00 68 1012.0
20210731220836 89 270 1.0 3.0 0.00 0.00 0.00 60 1012.0
20210731220336 88 126 1.0 3.0 0.00 0.00 0.00 75 1012.0
20210731215336 89 225 2.0 7.0 0.00 0.00 0.00 77 1012.0
20210731214836 92 168 1.0 3.0 0.00 0.00 0.00 73 1012.0
20210731214336 91 180 1.0 3.0 0.00 0.00 0.00 78 1480.0
20210731213836 91 78 1.0 3.0 0.00 0.00 0.00 74 1012.0
20210731213336 90 281 1.0 4.0 0.00 0.00 0.00 71 1012.0
20210731212836 90 157 2.0 4.0 0.00 0.00 0.00 72 1011.0
20210731212336 92 262 1.0 4.0 0.00 0.00 0.00 58 1012.0
20210731211836 91 172 1.0 4.0 0.00 0.00 0.00 71
20210731211336 90 90 1.0 4.0 0.00 0.00 0.00 67
20210731210836 89 331 1.0 4.0 0.00 0.00 0.00 69 1012.0
20210731210336 88 22 1.0 4.0 0.00 0.00 0.00 74 975.0
20210731205837 87 61 2.0 4.0 0.00 0.00 0.00 67 1012.0
20210731205335 89 232 1.0 3.0 0.00 0.00 0.00 75
20210731204836 86 37 1.0 3.0 0.00 0.00 0.00 79 1012.0
20210731204335 88 90 2.0 3.0 0.00 0.00 0.00 71 2196.0
20210731203836 88 174 1.0 3.0 0.00 0.00 0.00 71 1012.0
20210731203335 87 260 1.0 3.0 0.00 0.00 0.00 69
20210731202836 92 275 1.0 3.0 0.00 0.00 0.00 84 1012.0
20210731202335 93 180 1.0 3.0 0.00 0.00 0.00 72 1012.0
20210731201835 95 5 1.0 3.0 0.00 0.00 0.00 67 1012.0
20210731201335 92 326 1.0 3.0 0.00 0.00 0.00 76 1012.0
20210731200835 88 270 2.0 3.0 0.00 0.00 0.00 75 1012.0
20210731200335 89 330 1.0 5.0 0.00 0.00 0.00 74 1012.0
20210731195837 87 2.0 5.0 0.00 0.00 0.00 74 1012.0
20210731195335 86 28 1.0 3.0 0.00 0.00 0.00 72
20210731194835 83 22 1.0 3.0 0.00 0.00 0.00 73 1012.0
20210731194335 83 270 0.0 2.0 0.00 0.00 0.00 69 1012.0
20210731193836 83 127 1.0 3.0 0.00 0.00 0.00 73 1012.0
20210731193335 86 315 2.0 3.0 0.00 0.00 0.00 64
20210731192835 91 331 1.0 3.0 0.00 0.00 0.00 66 1012.0
20210731192335 89 345 1.0 4.0 0.00 0.00 0.00 78 1012.0
20210731191835 84 300 1.0 4.0 0.00 0.00 0.00 75 1012.0
20210731191335 87 33 1.0 4.0 0.00 0.00 0.00 81 1012.0
20210731190835 90 348 1.0 4.0 0.00 0.00 0.00 76 1012.0
20210731190335 91 345 2.0 4.0 0.00 0.00 0.00 80 1012.0
20210731185837 91 262 2.0 4.0 0.00 0.00 0.00 1012.0
20210731185335 90 229 2.0 6.0 0.00 0.00 0.00 73
20210731184835 90 225 3.0 6.0 0.00 0.00 0.00 76
20210731184335 92 0 2.0 5.0 0.00 0.00 0.00 64 1012.0
20210731183836 92 51 2.0 7.0 0.00 0.00 0.00 68 1012.0
20210731183335 92 56 3.0 7.0 0.00 0.00 0.00 71 1012.0
20210731182835 94 184 2.0 4.0 0.00 0.00 0.00 72 1012.0
20210731182335 93 90 1.0 4.0 0.00 0.00 0.00 53 1012.0
20210731181835 91 211 2.0 4.0 0.00 0.00 0.00 75 3380.0
20210731181335 91 307 1.0 4.0 0.00 0.00 0.00 76 1012.0
20210731180835 92 67 2.0 3.0 0.00 0.00 0.00 71
20210731180335 92 270 1.0 5.0 0.00 0.00 0.00 59 1012.0
20210731175837 92 37 2.0 5.0 0.00 0.00 0.00 1012.0
20210731175335 90 40 1.0 5.0 0.00 0.00 0.00 78 1012.0
20210731174835 87 73 2.0 6.0 0.00 0.00 0.00 67 1012.0
20210731174335 89 255 2.0 6.0 0.00 0.00 0.00 79
20210731173835 90 0 2.0 4.0 0.00 0.00 0.00 76
20210731173335 89 337 1.0 4.0 0.00 0.00 0.00 58
20210731172835 88 352 2.0 4.0 0.00 0.00 0.00 68 1012.0
20210731172335 89 90 2.0 4.0 0.00 0.00 0.00 63 1012.0
20210731171835 87 157 1.0 6.0 0.00 0.00 0.00 67 1012.0
20210731171335 83 22 3.0 6.0 0.00 0.00 0.00 83 1012.0
20210731170835 83 247 3.0 99.0 0.00 0.00 0.00 75 1012.0
20210731170335 86 337 399.0 99.0 0.00 0.00 0.00 69 1012.0
20210731165836 87 67 3.0 6.0 0.00 0.00 0.00 70 1013.0
20210731165335 85 90 1.0 5.0 0.00 0.00 0.00 75 1013.0
20210731164835 84 292 2.0 6.0 0.00 0.00 0.00 63 1013.0
20210731164335 83 78 2.0 6.0 0.00 0.00 0.00 63 1013.0
20210731163835 79 60 2.0 5.0 0.00 0.00 0.00 81 2571.0
20210731163335 83 281 2.0 5.0 0.00 0.00 0.00 67 1013.0
20210731162835 82 67 2.0 99.0 0.00 0.00 0.00 64 1013.0
20210731162335 81 225 299.0 99.0 0.00 0.00 0.00 93 1013.0
20210731161835 83 60 2.0 6.0 0.00 0.00 0.00 73 1013.0
20210731161335 81 50 2.0 4.0 0.00 0.00 0.00 74 1013.0
20210731160835 79 45 2.0 4.0 0.00 0.00 0.00 73 4494.0
20210731160335 80 195 2.0 4.0 0.00 0.00 0.00 79 1013.0
20210731155836 80 202 1.0 4.0 0.00 0.00 0.00 72
20210731155335 79 180 2.0 4.0 0.00 0.00 0.00 87 1013.0
20210731154835 80 90 1.0 3.0 0.00 0.00 0.00 75 1013.0
20210731154335 80 225 2.0 3.0 0.00 0.00 0.00 74
20210731153835 78 165 2.0 5.0 0.00 0.00 0.00 72
20210731153336 78 217 2.0 5.0 0.00 0.00 0.00 74 1013.0
20210731152835 77 292 2.0 5.0 0.00 0.00 0.00 82
20210731152335 79 135 2.0 5.0 0.00 0.00 0.00 72
20210731151835 79 33 2.0 4.0 0.00 0.00 0.00 78
20210731151335 79 270 2.0 5.0 0.00 0.00 0.00 75
20210731150835 78 90 2.0 5.0 0.00 0.00 0.00 74 1013.0
20210731150335 79 281 2.0 4.0 0.00 0.00 0.00 71 1013.0
20210731145836 80 90 1.0 4.0 0.00 0.00 0.00 84
20210731145335 79 67 2.0 3.0 0.00 0.00 0.00 81 974.0
20210731144835 77 45 2.0 4.0 0.00 0.00 0.00 86 1013.0
20210731143836 76 1.0 5.0 0.00 0.00 0.00 87 1013.0
20210731143335 74 217 2.0 8.0 0.00 0.00 0.00 74 1013.0
20210731142835 73 191 3.0 8.0 0.00 0.00 0.00 90 1013.0
20210731142335 74 217 3.0 5.0 0.00 0.00 0.00 82 1013.0
20210731141835 74 45 3.0 99.0 0.00 0.00 0.00 82 1013.0
20210731141335 74 195 199.0 99.0 0.00 0.00 0.00 68 1013.0
20210731140835 74 277 2.0 5.0 0.00 0.00 0.00 68 1013.0
20210731140335 73 202 3.0 5.0 0.00 0.00 0.00 75 1013.0
20210731135836 73 135 3.0 5.0 0.00 0.00 0.00 89
20210731135335 74 281 2.0 7.0 0.00 0.00 0.00 89 1013.0
20210731134835 72 236 2.0 7.0 0.00 0.00 0.00 82 1013.0
20210731134335 72 281 2.0 7.0 0.00 0.00 0.00 81 1013.0
20210731133835 73 112 3.0 6.0 0.00 0.00 0.00 73
20210731133335 72 2.0 5.0 0.00 0.00 0.00
20210731132835 72 22 2.0 5.0 0.00 0.00 0.00 68
20210731132335 72 236 2.0 7.0 0.00 0.00 0.00 81 1590.0
20210731131835 70 255 2.0 7.0 0.00 0.00 0.00 1013.0
20210731131335 70 315 3.0 6.0 0.00 0.00 0.00 91 1013.0
20210731130835 70 0 2.0 5.0 0.00 0.00 0.00 1013.0
20210731130335 71 2.0 4.0 0.00 0.00 0.00 88 1013.0
20210731125835 70 0 2.0 5.0 0.00 0.00 0.00 86 1013.0
20210731125335 70 225 3.0 5.0 0.00 0.00 0.00 91 1013.0
20210731124835 71 225 1.0 3.0 0.00 0.00 0.00 89 1013.0
20210731124335 70 315 1.0 3.0 0.00 0.00 0.00 90 1013.0
20210731123835 69 22 1.0 6.0 0.00 0.00 0.00 94 1013.0
20210731123335 69 0 2.0 6.0 0.00 0.00 0.00 85 3342.0
20210731122835 69 22 1.0 4.0 0.00 0.00 0.00 92 1013.0
20210731122335 68 315 1.0 3.0 0.00 0.00 0.00 95 1013.0
20210731121835 67 45 1.0 4.0 0.00 0.00 0.00 97 1013.0
20210731121335 67 345 2.0 4.0 0.00 0.00 0.00 93 1007.0
20210731120835 68 60 1.0 3.0 0.00 0.00 0.00 93 1013.0
20210731120335 68 97 1.0 3.0 0.00 0.00 0.00 94 1013.0
20210731115835 68 180 0.0 2.0 0.00 0.00 0.00 96 1013.0
20210731115335 67 225 0.0 3.0 0.00 0.00 0.00 98 1013.0
20210731114835 65 90 1.0 3.0 0.00 0.00 0.00 99 998.0
20210731114335 64 126 1.0 2.0 0.00 0.00 0.00 99
20210731113835 62 1.0 3.0 0.00 0.00 0.00 99
20210731113335 59 22 1.0 3.0 0.00 0.00 0.00 99
20210731112835 55 151 0.0 1.0 0.00 0.00 0.00 93 3309.0
20210731112335 55 52 0.0 2.0 0.00 0.00 0.00 99
20210731111835 55 0.0 2.0 0.00 0.00 0.00 99
20210731111335 54 90 0.0 0.0 0.00 0.00 0.00 99
20210731110835 54 168 0.0 1.0 0.00 0.00 0.00 99
20210731110335 53 0.0 1.0 0.00 0.00 0.00 99
20210731105835 53 157 0.0 1.0 0.00 0.00 0.00 99
20210731105335 53 0 0.0 1.0 0.00 0.00 0.00 2475.0
20210731104835 52 135 0.0 1.0 0.00 0.00 0.00 99 1013.0
20210731104335 52 67 0.0 1.0 0.00 0.00 0.00 99 1013.0
20210731103835 52 90 0.0 1.0 0.00 0.00 0.00 99
20210731103335 51 0.0 1.0 0.00 0.00 0.00 99 1013.0
20210731102835 51 135 0.0 1.0 0.00 0.00 0.00 99 2135.0
20210731102335 51 0.0 0.0 0.00 0.00 0.00 99
20210731101835 51 0.0 0.0 0.00 0.00 0.00 99
20210731101335 51 135 0.0 0.0 0.00 0.00 0.00 99
20210731100835 51 135 0.0 0.0 0.00 0.00 0.00 1013.0
20210731100335 51 135 0.0 0.0 0.00 0.00 0.00 99 1013.0
20210731095835 50 135 0.0 0.0 0.00 0.00 0.00 99 1013.0
20210731095335 51 135 0.0 0.0 0.00 0.00 0.00 99 1013.0
20210731094835 51 0.0 0.0 0.00 0.00 0.00 99
20210731094335 51 135 0.0 0.0 0.00 0.00 0.00 99 1012.0
20210731093835 51 135 0.0 0.0 0.00 0.00 0.00 99 1012.0
20210731093335 51 135 0.0 0.0 0.00 0.00 0.00 99
20210731092835 51 135 0.0 0.0 0.00 0.00 0.00 99 1012.0
20210731092335 52 0.0 99.0 0.00 0.00 0.00 88
20210731091835 52 135 74.0 99.0 0.00 0.00 0.00 99
20210731091335 52 0.0 0.0 0.00 0.00 0.00 99
20210731090835 52 135 0.0 0.0 0.00 0.00 0.00 99 1012.0
20210731090335 52 135 0.0 0.0 0.00 0.00 0.00 99
20210731085837 52 135 0.0 0.0 0.00 0.00 0.00 99 1012.0
20210731085335 53 0 0.0 0.0 0.00 0.00 0.00 99 1012.0
20210731084835 53 135 0.0 0.0 0.00 0.00 0.00 99 1012.0
20210731083835 53 157 0.0 0.0 0.00 0.00 0.00 99 1012.0
20210731083335 53 157 0.0 0.0 0.00 0.00 0.00 99 1012.0
20210731082835 53 157 0.0 99.0 0.00 0.00 0.00 99
20210731082335 54 157 101.0 99.0 0.00 0.00 0.00 1012.0
20210731081835 54 135 0.0 1.0 0.00 0.00 0.00 1012.0
20210731081335 54 56 0.0 0.0 0.00 0.00 0.00 99
20210731080835 54 0 0.0 1.0 0.00 0.00 0.00 99
20210731080335 54 0.0 1.0 0.00 0.00 0.00 972.0
20210731075835 54 11 0.0 1.0 0.00 0.00 0.00 99 1012.0
20210731075334 55 258 0.0 2.0 0.00 0.00 0.00 99
20210731074835 55 337 0.0 2.0 0.00 0.00 0.00 99
20210731074335 55 0.0 2.0 0.00 0.00 0.00 99
20210731073835 55 90 0.0 1.0 0.00 0.00 0.00 99 1012.0
20210731073335 55 0.0 2.0 0.00 0.00 0.00 99 1012.0
20210731072835 55 67 0.0 2.0 0.00 0.00 0.00 99
20210731072334 55 78 0.0 1.0 0.00 0.00 0.00 99
20210731071835 55 67 0.0 1.0 0.00 0.00 0.00 99 1012.0
20210731071335 55 15 0.0 1.0 0.00 0.00 0.00 99 1012.0
20210731070834 55 247 0.0 2.0 0.00 0.00 0.00 99 1012.0
20210731070334 55 52 0.0 2.0 0.00 0.00 0.00 99 1012.0
20210731065835 55 45 0.0 1.0 0.00 0.00 0.00 99
20210731065334 55 90 0.0 1.0 0.00 0.00 0.00 89 1012.0
20210731064834 55 0.0 1.0 0.00 0.00 0.00
20210731064334 55 0.0 1.0 0.00 0.00 0.00 99
20210731063835 55 0.0 1.0 0.00 0.00 0.00 99 5748.0
20210731063335 55 0 0.0 1.0 0.00 0.00 0.00 99 1012.0
20210731062834 56 0.0 1.0 0.00 0.00 0.00 99